Date_Time,Julian_Date,Latitude,Longitude,Instrument_Depth,U,V,Speed,Direction
(yyyy-mm-dd hh:mn:ss UTC),(JD),(+ deg. North),(+ deg. East),(m),(cm/s),(cm/s),(cm/s),(deg True)
1981-03-06 17:00:00 UTC,2444670.208333,29.4519,-93.4333,0107,2.87,7.47,8.0000,21.0000
1981-03-06 17:30:00 UTC,2444670.229167,29.4519,-93.4333,0107,2.87,7.47,8.0000,21.0000
1981-03-06 18:00:00 UTC,2444670.250000,29.4519,-93.4333,0107,2.74,7.52,8.0000,20.0000
1981-03-06 18:30:00 UTC,2444670.270833,29.4519,-93.4333,0107,1.10,6.91,7.0000,9.0000
1981-03-06 19:00:00 UTC,2444670.291667,29.4519,-93.4333,0107,-2.06,3.43,4.0000,329.0000
1981-03-06 19:30:00 UTC,2444670.312500,29.4519,-93.4333,0107,-4.97,-3.36,6.0000,236.0000
1981-03-06 20:00:00 UTC,2444670.333333,29.4519,-93.4333,0107,-8.87,-9.51,13.0000,223.0000
1981-03-06 20:30:00 UTC,2444670.354167,29.4519,-93.4333,0107,-13.21,-10.70,17.0000,231.0000
1981-03-06 21:00:00 UTC,2444670.375000,29.4519,-93.4333,0107,-15.75,-10.62,19.0000,236.0000
1981-03-06 21:30:00 UTC,2444670.395833,29.4519,-93.4333,0107,-16.77,-12.64,21.0000,233.0000
1981-03-06 22:00:00 UTC,2444670.416667,29.4519,-93.4333,0107,-16.60,-14.43,22.0000,229.0000
1981-03-06 22:30:00 UTC,2444670.437500,29.4519,-93.4333,0107,-16.09,-15.00,22.0000,227.0000
1981-03-06 23:00:00 UTC,2444670.458333,29.4519,-93.4333,0107,-14.85,-14.85,21.0000,225.0000
1981-03-06 23:30:00 UTC,2444670.479167,29.4519,-93.4333,0107,-14.14,-14.14,20.0000,225.0000
1981-03-07 00:00:00 UTC,2444670.500000,29.4519,-93.4333,0107,-11.59,-12.43,17.0000,223.0000
1981-03-07 00:30:00 UTC,2444670.520833,29.4519,-93.4333,0107,-10.04,-11.15,15.0000,222.0000
1981-03-07 01:00:00 UTC,2444670.541667,29.4519,-93.4333,0107,-9.35,-9.03,13.0000,226.0000
1981-03-07 01:30:00 UTC,2444670.562500,29.4519,-93.4333,0107,-8.78,-6.62,11.0000,233.0000
1981-03-07 02:00:00 UTC,2444670.583333,29.4519,-93.4333,0107,-9.14,-4.07,10.0000,246.0000
1981-03-07 02:30:00 UTC,2444670.604167,29.4519,-93.4333,0107,-8.80,-1.87,9.0000,258.0000
1981-03-07 03:00:00 UTC,2444670.625000,29.4519,-93.4333,0107,-9.00,-0.00,9.0000,270.0000
1981-03-07 03:30:00 UTC,2444670.645833,29.4519,-93.4333,0107,-7.79,1.80,8.0000,283.0000
1981-03-07 04:00:00 UTC,2444670.666667,29.4519,-93.4333,0107,-7.61,2.47,8.0000,288.0000
1981-03-07 04:30:00 UTC,2444670.687500,29.4519,-93.4333,0107,-8.46,3.08,9.0000,290.0000
1981-03-07 05:00:00 UTC,2444670.708333,29.4519,-93.4333,0107,-8.34,3.37,9.0000,292.0000
1981-03-07 05:30:00 UTC,2444670.729167,29.4519,-93.4333,0107,-7.95,4.23,9.0000,298.0000
1981-03-07 06:00:00 UTC,2444670.750000,29.4519,-93.4333,0107,-7.09,5.54,9.0000,308.0000
1981-03-07 06:30:00 UTC,2444670.770833,29.4519,-93.4333,0107,-7.31,6.82,10.0000,313.0000
1981-03-07 07:00:00 UTC,2444670.791667,29.4519,-93.4333,0107,-7.99,6.02,10.0000,307.0000
1981-03-07 07:30:00 UTC,2444670.812500,29.4519,-93.4333,0107,-7.36,3.13,8.0000,293.0000
1981-03-07 08:00:00 UTC,2444670.833333,29.4519,-93.4333,0107,-7.96,0.84,8.0000,276.0000
1981-03-07 08:30:00 UTC,2444670.854167,29.4519,-93.4333,0107,-7.79,-1.80,8.0000,257.0000
1981-03-07 09:00:00 UTC,2444670.875000,29.4519,-93.4333,0107,-7.79,-4.50,9.0000,240.0000
1981-03-07 09:30:00 UTC,2444670.895833,29.4519,-93.4333,0107,-7.19,-6.95,10.0000,226.0000
1981-03-07 10:00:00 UTC,2444670.916667,29.4519,-93.4333,0107,-6.00,-10.39,12.0000,210.0000
1981-03-07 10:30:00 UTC,2444670.937500,29.4519,-93.4333,0107,-4.23,-12.29,13.0000,199.0000
1981-03-07 11:00:00 UTC,2444670.958333,29.4519,-93.4333,0107,-3.39,-13.58,14.0000,194.0000
1981-03-07 11:30:00 UTC,2444670.979167,29.4519,-93.4333,0107,-2.91,-13.69,14.0000,192.0000
1981-03-07 12:00:00 UTC,2444671.000000,29.4519,-93.4333,0107,-1.15,-10.94,11.0000,186.0000
1981-03-07 12:30:00 UTC,2444671.020833,29.4519,-93.4333,0107,0.42,-7.99,8.0000,177.0000
1981-03-07 13:00:00 UTC,2444671.041667,29.4519,-93.4333,0107,0.00,-7.00,7.0000,180.0000
1981-03-07 13:30:00 UTC,2444671.062500,29.4519,-93.4333,0107,-1.80,-7.79,8.0000,193.0000
1981-03-07 14:00:00 UTC,2444671.083333,29.4519,-93.4333,0107,-2.96,-6.34,7.0000,205.0000
1981-03-07 14:30:00 UTC,2444671.104167,29.4519,-93.4333,0107,-5.04,-4.86,7.0000,226.0000
1981-03-07 15:00:00 UTC,2444671.125000,29.4519,-93.4333,0107,-6.76,-1.81,7.0000,255.0000
1981-03-07 15:30:00 UTC,2444671.145833,29.4519,-93.4333,0107,-6.76,1.81,7.0000,285.0000
1981-03-07 16:00:00 UTC,2444671.166667,29.4519,-93.4333,0107,-6.47,4.70,8.0000,306.0000
1981-03-07 16:30:00 UTC,2444671.187500,29.4519,-93.4333,0107,-6.95,7.19,10.0000,316.0000
1981-03-07 17:00:00 UTC,2444671.208333,29.4519,-93.4333,0107,-6.56,7.55,10.0000,319.0000
1981-03-07 17:30:00 UTC,2444671.229167,29.4519,-93.4333,0107,-6.29,7.77,10.0000,321.0000
1981-03-07 18:00:00 UTC,2444671.250000,29.4519,-93.4333,0107,-5.16,7.37,9.0000,325.0000
1981-03-07 18:30:00 UTC,2444671.270833,29.4519,-93.4333,0107,-4.31,5.52,7.0000,322.0000
1981-03-07 19:00:00 UTC,2444671.291667,29.4519,-93.4333,0107,-4.79,3.61,6.0000,307.0000
1981-03-07 19:30:00 UTC,2444671.312500,29.4519,-93.4333,0107,-5.98,0.52,6.0000,275.0000
1981-03-07 20:00:00 UTC,2444671.333333,29.4519,-93.4333,0107,-8.51,-2.93,9.0000,251.0000
1981-03-07 20:30:00 UTC,2444671.354167,29.4519,-93.4333,0107,-10.34,-3.76,11.0000,250.0000
1981-03-07 21:00:00 UTC,2444671.375000,29.4519,-93.4333,0107,-10.67,-2.66,11.0000,256.0000
1981-03-07 21:30:00 UTC,2444671.395833,29.4519,-93.4333,0107,-9.95,-1.05,10.0000,264.0000
1981-03-07 22:00:00 UTC,2444671.416667,29.4519,-93.4333,0107,-7.98,-0.56,8.0000,266.0000
1981-03-07 22:30:00 UTC,2444671.437500,29.4519,-93.4333,0107,-6.49,-2.62,7.0000,248.0000
1981-03-07 23:00:00 UTC,2444671.458333,29.4519,-93.4333,0107,-4.86,-5.04,7.0000,224.0000
1981-03-07 23:30:00 UTC,2444671.479167,29.4519,-93.4333,0107,-5.45,-8.39,10.0000,213.0000
1981-03-08 00:00:00 UTC,2444671.500000,29.4519,-93.4333,0107,-6.54,-10.06,12.0000,213.0000
1981-03-08 00:30:00 UTC,2444671.520833,29.4519,-93.4333,0107,-7.82,-10.38,13.0000,217.0000
1981-03-08 01:00:00 UTC,2444671.541667,29.4519,-93.4333,0107,-8.53,-9.81,13.0000,221.0000
1981-03-08 01:30:00 UTC,2444671.562500,29.4519,-93.4333,0107,-9.90,-9.90,14.0000,225.0000
1981-03-08 02:00:00 UTC,2444671.583333,29.4519,-93.4333,0107,-11.18,-8.43,14.0000,233.0000
1981-03-08 02:30:00 UTC,2444671.604167,29.4519,-93.4333,0107,-12.12,-7.00,14.0000,240.0000
1981-03-08 03:00:00 UTC,2444671.625000,29.4519,-93.4333,0107,-10.60,-5.63,12.0000,242.0000
1981-03-08 03:30:00 UTC,2444671.645833,29.4519,-93.4333,0107,-10.05,-4.47,11.0000,246.0000
1981-03-08 04:00:00 UTC,2444671.666667,29.4519,-93.4333,0107,-11.74,-2.49,12.0000,258.0000
1981-03-08 04:30:00 UTC,2444671.687500,29.4519,-93.4333,0107,-13.99,-0.49,14.0000,268.0000
1981-03-08 05:00:00 UTC,2444671.708333,29.4519,-93.4333,0107,-14.00,-0.00,14.0000,270.0000
1981-03-08 05:30:00 UTC,2444671.729167,29.4519,-93.4333,0107,-15.00,-0.00,15.0000,270.0000
1981-03-08 06:00:00 UTC,2444671.750000,29.4519,-93.4333,0107,-15.96,1.12,16.0000,274.0000
1981-03-08 06:30:00 UTC,2444671.770833,29.4519,-93.4333,0107,-15.88,1.95,16.0000,277.0000
1981-03-08 07:00:00 UTC,2444671.791667,29.4519,-93.4333,0107,-15.91,1.67,16.0000,276.0000
1981-03-08 07:30:00 UTC,2444671.812500,29.4519,-93.4333,0107,-17.00,-0.00,17.0000,270.0000
1981-03-08 08:00:00 UTC,2444671.833333,29.4519,-93.4333,0107,-17.96,-1.26,18.0000,266.0000
1981-03-08 08:30:00 UTC,2444671.854167,29.4519,-93.4333,0107,-17.93,-1.57,18.0000,265.0000
1981-03-08 09:00:00 UTC,2444671.875000,29.4519,-93.4333,0107,-16.91,-1.78,17.0000,264.0000
1981-03-08 09:30:00 UTC,2444671.895833,29.4519,-93.4333,0107,-16.74,-2.95,17.0000,260.0000
1981-03-08 10:00:00 UTC,2444671.916667,29.4519,-93.4333,0107,-16.56,-3.82,17.0000,257.0000
1981-03-08 10:30:00 UTC,2444671.937500,29.4519,-93.4333,0107,-16.26,-4.97,17.0000,253.0000
1981-03-08 11:00:00 UTC,2444671.958333,29.4519,-93.4333,0107,-16.17,-5.25,17.0000,252.0000
1981-03-08 11:30:00 UTC,2444671.979167,29.4519,-93.4333,0107,-15.97,-5.81,17.0000,250.0000
1981-03-08 12:00:00 UTC,2444672.000000,29.4519,-93.4333,0107,-15.41,-7.18,17.0000,245.0000
1981-03-08 12:30:00 UTC,2444672.020833,29.4519,-93.4333,0107,-15.43,-9.27,18.0000,239.0000
1981-03-08 13:00:00 UTC,2444672.041667,29.4519,-93.4333,0107,-15.75,-10.62,19.0000,236.0000
1981-03-08 13:30:00 UTC,2444672.062500,29.4519,-93.4333,0107,-16.77,-10.89,20.0000,237.0000
1981-03-08 14:00:00 UTC,2444672.083333,29.4519,-93.4333,0107,-16.96,-10.60,20.0000,238.0000
1981-03-08 14:30:00 UTC,2444672.104167,29.4519,-93.4333,0107,-16.04,-8.17,18.0000,243.0000
1981-03-08 15:00:00 UTC,2444672.125000,29.4519,-93.4333,0107,-15.97,-5.81,17.0000,250.0000
1981-03-08 15:30:00 UTC,2444672.145833,29.4519,-93.4333,0107,-16.42,-4.40,17.0000,255.0000
1981-03-08 16:00:00 UTC,2444672.166667,29.4519,-93.4333,0107,-15.71,-3.05,16.0000,259.0000
1981-03-08 16:30:00 UTC,2444672.187500,29.4519,-93.4333,0107,-14.89,-1.83,15.0000,263.0000
1981-03-08 17:00:00 UTC,2444672.208333,29.4519,-93.4333,0107,-13.95,-1.22,14.0000,265.0000
1981-03-08 17:30:00 UTC,2444672.229167,29.4519,-93.4333,0107,-13.98,-0.73,14.0000,267.0000
1981-03-08 18:00:00 UTC,2444672.250000,29.4519,-93.4333,0107,-15.00,-0.26,15.0000,269.0000
1981-03-08 18:30:00 UTC,2444672.270833,29.4519,-93.4333,0107,-13.98,0.73,14.0000,273.0000
1981-03-08 19:00:00 UTC,2444672.291667,29.4519,-93.4333,0107,-13.83,2.19,14.0000,279.0000
1981-03-08 19:30:00 UTC,2444672.312500,29.4519,-93.4333,0107,-13.69,2.91,14.0000,282.0000
1981-03-08 20:00:00 UTC,2444672.333333,29.4519,-93.4333,0107,-13.79,2.43,14.0000,280.0000
1981-03-08 20:30:00 UTC,2444672.354167,29.4519,-93.4333,0107,-14.92,1.57,15.0000,276.0000
1981-03-08 21:00:00 UTC,2444672.375000,29.4519,-93.4333,0107,-16.00,0.28,16.0000,271.0000
1981-03-08 21:30:00 UTC,2444672.395833,29.4519,-93.4333,0107,-14.98,-0.79,15.0000,267.0000
1981-03-08 22:00:00 UTC,2444672.416667,29.4519,-93.4333,0107,-14.92,-1.57,15.0000,264.0000
1981-03-08 22:30:00 UTC,2444672.437500,29.4519,-93.4333,0107,-12.80,-2.26,13.0000,260.0000
1981-03-08 23:00:00 UTC,2444672.458333,29.4519,-93.4333,0107,-12.43,-3.80,13.0000,253.0000
1981-03-08 23:30:00 UTC,2444672.479167,29.4519,-93.4333,0107,-11.68,-5.70,13.0000,244.0000
1981-03-09 00:00:00 UTC,2444672.500000,29.4519,-93.4333,0107,-9.95,-6.71,12.0000,236.0000
1981-03-09 00:30:00 UTC,2444672.520833,29.4519,-93.4333,0107,-9.19,-7.71,12.0000,230.0000
1981-03-09 01:00:00 UTC,2444672.541667,29.4519,-93.4333,0107,-8.18,-8.78,12.0000,223.0000
1981-03-09 01:30:00 UTC,2444672.562500,29.4519,-93.4333,0107,-8.00,-10.24,13.0000,218.0000
1981-03-09 02:00:00 UTC,2444672.583333,29.4519,-93.4333,0107,-8.82,-12.14,15.0000,216.0000
1981-03-09 02:30:00 UTC,2444672.604167,29.4519,-93.4333,0107,-9.03,-11.98,15.0000,217.0000
1981-03-09 03:00:00 UTC,2444672.625000,29.4519,-93.4333,0107,-9.55,-10.24,14.0000,223.0000
1981-03-09 03:30:00 UTC,2444672.645833,29.4519,-93.4333,0107,-11.03,-8.62,14.0000,232.0000
1981-03-09 04:00:00 UTC,2444672.666667,29.4519,-93.4333,0107,-11.26,-6.50,13.0000,240.0000
1981-03-09 04:30:00 UTC,2444672.687500,29.4519,-93.4333,0107,-11.97,-5.08,13.0000,247.0000
1981-03-09 05:00:00 UTC,2444672.708333,29.4519,-93.4333,0107,-12.43,-3.80,13.0000,253.0000
1981-03-09 05:30:00 UTC,2444672.729167,29.4519,-93.4333,0107,-13.74,-2.67,14.0000,259.0000
1981-03-09 06:00:00 UTC,2444672.750000,29.4519,-93.4333,0107,-13.97,-0.98,14.0000,266.0000
1981-03-09 06:30:00 UTC,2444672.770833,29.4519,-93.4333,0107,-13.97,0.98,14.0000,274.0000
1981-03-09 07:00:00 UTC,2444672.791667,29.4519,-93.4333,0107,-12.80,2.26,13.0000,280.0000
1981-03-09 07:30:00 UTC,2444672.812500,29.4519,-93.4333,0107,-12.61,3.14,13.0000,284.0000
1981-03-09 08:00:00 UTC,2444672.833333,29.4519,-93.4333,0107,-11.54,3.31,12.0000,286.0000
1981-03-09 08:30:00 UTC,2444672.854167,29.4519,-93.4333,0107,-11.69,2.70,12.0000,283.0000
1981-03-09 09:00:00 UTC,2444672.875000,29.4519,-93.4333,0107,-11.93,1.25,12.0000,276.0000
1981-03-09 09:30:00 UTC,2444672.895833,29.4519,-93.4333,0107,-13.00,-0.00,13.0000,270.0000
1981-03-09 10:00:00 UTC,2444672.916667,29.4519,-93.4333,0107,-13.98,-0.73,14.0000,267.0000
1981-03-09 10:30:00 UTC,2444672.937500,29.4519,-93.4333,0107,-15.96,-1.12,16.0000,266.0000
1981-03-09 11:00:00 UTC,2444672.958333,29.4519,-93.4333,0107,-15.91,-1.67,16.0000,264.0000
1981-03-09 11:30:00 UTC,2444672.979167,29.4519,-93.4333,0107,-15.76,-2.78,16.0000,260.0000
1981-03-09 12:00:00 UTC,2444673.000000,29.4519,-93.4333,0107,-14.49,-3.88,15.0000,255.0000
1981-03-09 12:30:00 UTC,2444673.020833,29.4519,-93.4333,0107,-14.10,-5.13,15.0000,250.0000
1981-03-09 13:00:00 UTC,2444673.041667,29.4519,-93.4333,0107,-14.62,-6.51,16.0000,246.0000
1981-03-09 13:30:00 UTC,2444673.062500,29.4519,-93.4333,0107,-13.99,-7.76,16.0000,241.0000
1981-03-09 14:00:00 UTC,2444673.083333,29.4519,-93.4333,0107,-13.71,-8.24,16.0000,239.0000
1981-03-09 14:30:00 UTC,2444673.104167,29.4519,-93.4333,0107,-14.42,-9.01,17.0000,238.0000
1981-03-09 15:00:00 UTC,2444673.125000,29.4519,-93.4333,0107,-14.92,-10.07,18.0000,236.0000
1981-03-09 15:30:00 UTC,2444673.145833,29.4519,-93.4333,0107,-15.10,-9.80,18.0000,237.0000
1981-03-09 16:00:00 UTC,2444673.166667,29.4519,-93.4333,0107,-15.01,-7.98,17.0000,242.0000
1981-03-09 16:30:00 UTC,2444673.187500,29.4519,-93.4333,0107,-14.27,-4.64,15.0000,252.0000
1981-03-09 17:00:00 UTC,2444673.208333,29.4519,-93.4333,0107,-12.87,-1.81,13.0000,262.0000
1981-03-09 17:30:00 UTC,2444673.229167,29.4519,-93.4333,0107,-11.98,-0.63,12.0000,267.0000
1981-03-09 18:00:00 UTC,2444673.250000,29.4519,-93.4333,0107,-10.99,-0.38,11.0000,268.0000
1981-03-09 18:30:00 UTC,2444673.270833,29.4519,-93.4333,0107,-10.00,-0.17,10.0000,269.0000
1981-03-09 19:00:00 UTC,2444673.291667,29.4519,-93.4333,0107,-10.00,0.17,10.0000,271.0000
1981-03-09 19:30:00 UTC,2444673.312500,29.4519,-93.4333,0107,-8.99,0.47,9.0000,273.0000
1981-03-09 20:00:00 UTC,2444673.333333,29.4519,-93.4333,0107,-9.00,-0.00,9.0000,270.0000
1981-03-09 20:30:00 UTC,2444673.354167,29.4519,-93.4333,0107,-9.88,-1.56,10.0000,261.0000
1981-03-09 21:00:00 UTC,2444673.375000,29.4519,-93.4333,0107,-10.34,-3.76,11.0000,250.0000
1981-03-09 21:30:00 UTC,2444673.395833,29.4519,-93.4333,0107,-10.50,-5.82,12.0000,241.0000
1981-03-09 22:00:00 UTC,2444673.416667,29.4519,-93.4333,0107,-9.46,-7.39,12.0000,232.0000
1981-03-09 22:30:00 UTC,2444673.437500,29.4519,-93.4333,0107,-9.03,-9.35,13.0000,224.0000
1981-03-09 23:00:00 UTC,2444673.458333,29.4519,-93.4333,0107,-8.81,-10.88,14.0000,219.0000
1981-03-09 23:30:00 UTC,2444673.479167,29.4519,-93.4333,0107,-8.03,-11.47,14.0000,215.0000
1981-03-10 00:00:00 UTC,2444673.500000,29.4519,-93.4333,0107,-7.27,-10.78,13.0000,214.0000
1981-03-10 00:30:00 UTC,2444673.520833,29.4519,-93.4333,0107,-6.70,-11.14,13.0000,211.0000
1981-03-10 01:00:00 UTC,2444673.541667,29.4519,-93.4333,0107,-5.45,-10.69,12.0000,207.0000
1981-03-10 01:30:00 UTC,2444673.562500,29.4519,-93.4333,0107,-4.88,-10.96,12.0000,204.0000
1981-03-10 02:00:00 UTC,2444673.583333,29.4519,-93.4333,0107,-4.50,-11.13,12.0000,202.0000
1981-03-10 02:30:00 UTC,2444673.604167,29.4519,-93.4333,0107,-4.50,-11.13,12.0000,202.0000
1981-03-10 03:00:00 UTC,2444673.625000,29.4519,-93.4333,0107,-5.07,-10.88,12.0000,205.0000
1981-03-10 03:30:00 UTC,2444673.645833,29.4519,-93.4333,0107,-5.82,-10.50,12.0000,209.0000
1981-03-10 04:00:00 UTC,2444673.666667,29.4519,-93.4333,0107,-6.62,-8.79,11.0000,217.0000
1981-03-10 04:30:00 UTC,2444673.687500,29.4519,-93.4333,0107,-6.47,-6.25,9.0000,226.0000
1981-03-10 05:00:00 UTC,2444673.708333,29.4519,-93.4333,0107,-6.00,-3.61,7.0000,239.0000
1981-03-10 05:30:00 UTC,2444673.729167,29.4519,-93.4333,0107,-5.97,-0.63,6.0000,264.0000
1981-03-10 06:00:00 UTC,2444673.750000,29.4519,-93.4333,0107,-5.74,1.75,6.0000,287.0000
1981-03-10 06:30:00 UTC,2444673.770833,29.4519,-93.4333,0107,-5.03,3.27,6.0000,303.0000
1981-03-10 07:00:00 UTC,2444673.791667,29.4519,-93.4333,0107,-4.59,5.28,7.0000,319.0000
1981-03-10 07:30:00 UTC,2444673.812500,29.4519,-93.4333,0107,-3.71,5.94,7.0000,328.0000
1981-03-10 08:00:00 UTC,2444673.833333,29.4519,-93.4333,0107,-2.91,5.25,6.0000,331.0000
1981-03-10 08:30:00 UTC,2444673.854167,29.4519,-93.4333,0107,-3.27,5.03,6.0000,327.0000
1981-03-10 09:00:00 UTC,2444673.875000,29.4519,-93.4333,0107,-3.28,3.77,5.0000,319.0000
1981-03-10 09:30:00 UTC,2444673.895833,29.4519,-93.4333,0107,-3.54,3.54,5.0000,315.0000
1981-03-10 10:00:00 UTC,2444673.916667,29.4519,-93.4333,0107,-3.94,3.08,5.0000,308.0000
1981-03-10 10:30:00 UTC,2444673.937500,29.4519,-93.4333,0107,-4.64,1.87,5.0000,292.0000
1981-03-10 11:00:00 UTC,2444673.958333,29.4519,-93.4333,0107,-4.95,0.70,5.0000,278.0000
1981-03-10 11:30:00 UTC,2444673.979167,29.4519,-93.4333,0107,-3.97,-0.49,4.0000,263.0000
1981-03-10 12:00:00 UTC,2444674.000000,29.4519,-93.4333,0107,-3.53,-1.88,4.0000,242.0000
1981-03-10 12:30:00 UTC,2444674.020833,29.4519,-93.4333,0107,-2.58,-4.29,5.0000,211.0000
1981-03-10 13:00:00 UTC,2444674.041667,29.4519,-93.4333,0107,-1.81,-6.76,7.0000,195.0000
1981-03-10 13:30:00 UTC,2444674.062500,29.4519,-93.4333,0107,-2.42,-9.70,10.0000,194.0000
1981-03-10 14:00:00 UTC,2444674.083333,29.4519,-93.4333,0107,-2.66,-10.67,11.0000,194.0000
1981-03-10 14:30:00 UTC,2444674.104167,29.4519,-93.4333,0107,-2.59,-9.66,10.0000,195.0000
1981-03-10 15:00:00 UTC,2444674.125000,29.4519,-93.4333,0107,-3.09,-9.51,10.0000,198.0000
1981-03-10 15:30:00 UTC,2444674.145833,29.4519,-93.4333,0107,-3.09,-9.51,10.0000,198.0000
1981-03-10 16:00:00 UTC,2444674.166667,29.4519,-93.4333,0107,-2.33,-8.69,9.0000,195.0000
1981-03-10 16:30:00 UTC,2444674.187500,29.4519,-93.4333,0107,-1.69,-6.79,7.0000,194.0000
1981-03-10 17:00:00 UTC,2444674.208333,29.4519,-93.4333,0107,-1.95,-5.67,6.0000,199.0000
1981-03-10 17:30:00 UTC,2444674.229167,29.4519,-93.4333,0107,-2.91,-5.25,6.0000,209.0000
1981-03-10 18:00:00 UTC,2444674.250000,29.4519,-93.4333,0107,-3.78,-4.66,6.0000,219.0000
1981-03-10 18:30:00 UTC,2444674.270833,29.4519,-93.4333,0107,-5.12,-4.77,7.0000,227.0000
1981-03-10 19:00:00 UTC,2444674.291667,29.4519,-93.4333,0107,-6.39,-4.81,8.0000,233.0000
1981-03-10 19:30:00 UTC,2444674.312500,29.4519,-93.4333,0107,-6.78,-4.24,8.0000,238.0000
1981-03-10 20:00:00 UTC,2444674.333333,29.4519,-93.4333,0107,-5.30,-2.82,6.0000,242.0000
1981-03-10 20:30:00 UTC,2444674.354167,29.4519,-93.4333,0107,-5.30,-2.82,6.0000,242.0000
1981-03-10 21:00:00 UTC,2444674.375000,29.4519,-93.4333,0107,-4.60,-3.86,6.0000,230.0000
1981-03-10 21:30:00 UTC,2444674.395833,29.4519,-93.4333,0107,-5.66,-6.99,9.0000,219.0000
1981-03-10 22:00:00 UTC,2444674.416667,29.4519,-93.4333,0107,-8.03,-8.92,12.0000,222.0000
1981-03-10 22:30:00 UTC,2444674.437500,29.4519,-93.4333,0107,-10.57,-9.18,14.0000,229.0000
1981-03-10 23:00:00 UTC,2444674.458333,29.4519,-93.4333,0107,-12.14,-8.82,15.0000,234.0000
1981-03-10 23:30:00 UTC,2444674.479167,29.4519,-93.4333,0107,-13.11,-9.18,16.0000,235.0000
1981-03-11 00:00:00 UTC,2444674.500000,29.4519,-93.4333,0107,-11.03,-8.62,14.0000,232.0000
1981-03-11 00:30:00 UTC,2444674.520833,29.4519,-93.4333,0107,-10.24,-9.55,14.0000,227.0000
1981-03-11 01:00:00 UTC,2444674.541667,29.4519,-93.4333,0107,-9.18,-10.57,14.0000,221.0000
1981-03-11 01:30:00 UTC,2444674.562500,29.4519,-93.4333,0107,-8.03,-11.47,14.0000,215.0000
1981-03-11 02:00:00 UTC,2444674.583333,29.4519,-93.4333,0107,-6.36,-10.18,12.0000,212.0000
1981-03-11 02:30:00 UTC,2444674.604167,29.4519,-93.4333,0107,-6.88,-9.83,12.0000,215.0000
1981-03-11 03:00:00 UTC,2444674.625000,29.4519,-93.4333,0107,-6.71,-9.95,12.0000,214.0000
1981-03-11 03:30:00 UTC,2444674.645833,29.4519,-93.4333,0107,-6.18,-10.29,12.0000,211.0000
1981-03-11 04:00:00 UTC,2444674.666667,29.4519,-93.4333,0107,-6.31,-9.01,11.0000,215.0000
1981-03-11 04:30:00 UTC,2444674.687500,29.4519,-93.4333,0107,-6.95,-7.19,10.0000,224.0000
1981-03-11 05:00:00 UTC,2444674.708333,29.4519,-93.4333,0107,-6.47,-4.70,8.0000,234.0000
1981-03-11 05:30:00 UTC,2444674.729167,29.4519,-93.4333,0107,-5.52,-2.34,6.0000,247.0000
1981-03-11 06:00:00 UTC,2444674.750000,29.4519,-93.4333,0107,-4.83,-1.29,5.0000,255.0000
1981-03-11 06:30:00 UTC,2444674.770833,29.4519,-93.4333,0107,-4.60,-1.95,5.0000,247.0000
1981-03-11 07:00:00 UTC,2444674.791667,29.4519,-93.4333,0107,-6.06,-3.50,7.0000,240.0000
1981-03-11 07:30:00 UTC,2444674.812500,29.4519,-93.4333,0107,-7.25,-3.38,8.0000,245.0000
1981-03-11 08:00:00 UTC,2444674.833333,29.4519,-93.4333,0107,-7.96,-0.84,8.0000,264.0000
1981-03-11 08:30:00 UTC,2444674.854167,29.4519,-93.4333,0107,-8.51,2.93,9.0000,289.0000
1981-03-11 09:00:00 UTC,2444674.875000,29.4519,-93.4333,0107,-5.85,5.46,8.0000,313.0000
1981-03-11 09:30:00 UTC,2444674.895833,29.4519,-93.4333,0107,-3.18,6.24,7.0000,333.0000
1981-03-11 10:00:00 UTC,2444674.916667,29.4519,-93.4333,0107,-1.95,4.60,5.0000,337.0000
1981-03-11 10:30:00 UTC,2444674.937500,29.4519,-93.4333,0107,-1.63,2.52,3.0000,327.0000
1981-03-11 11:00:00 UTC,2444674.958333,29.4519,-93.4333,0107,-2.62,1.45,3.0000,299.0000
1981-03-11 11:30:00 UTC,2444674.979167,29.4519,-93.4333,0107,-4.76,1.55,5.0000,288.0000
1981-03-11 12:00:00 UTC,2444675.000000,29.4519,-93.4333,0107,-5.74,1.75,6.0000,287.0000
1981-03-11 12:30:00 UTC,2444675.020833,29.4519,-93.4333,0107,-4.87,1.12,5.0000,283.0000
1981-03-11 13:00:00 UTC,2444675.041667,29.4519,-93.4333,0107,-2.96,0.47,3.0000,279.0000
1981-03-11 13:30:00 UTC,2444675.062500,29.4519,-93.4333,0107,-0.93,-0.37,1.0000,248.0000
1981-03-11 14:00:00 UTC,2444675.083333,29.4519,-93.4333,0107,-0.31,-1.98,2.0000,189.0000
1981-03-11 14:30:00 UTC,2444675.104167,29.4519,-93.4333,0107,-1.29,-4.83,5.0000,195.0000
1981-03-11 15:00:00 UTC,2444675.125000,29.4519,-93.4333,0107,-2.74,-7.52,8.0000,200.0000
1981-03-11 15:30:00 UTC,2444675.145833,29.4519,-93.4333,0107,-4.09,-8.02,9.0000,207.0000
1981-03-11 16:00:00 UTC,2444675.166667,29.4519,-93.4333,0107,-4.36,-6.71,8.0000,213.0000
1981-03-11 16:30:00 UTC,2444675.187500,29.4519,-93.4333,0107,-3.71,-5.94,7.0000,212.0000
1981-03-11 17:00:00 UTC,2444675.208333,29.4519,-93.4333,0107,-1.43,-3.73,4.0000,201.0000
1981-03-11 17:30:00 UTC,2444675.229167,29.4519,-93.4333,0107,0.91,-1.78,2.0000,153.0000
1981-03-11 18:00:00 UTC,2444675.250000,29.4519,-93.4333,0107,2.98,0.31,3.0000,84.0000
1981-03-11 18:30:00 UTC,2444675.270833,29.4519,-93.4333,0107,2.99,0.26,3.0000,85.0000
1981-03-11 19:00:00 UTC,2444675.291667,29.4519,-93.4333,0107,1.99,-0.24,2.0000,97.0000
1981-03-11 19:30:00 UTC,2444675.312500,29.4519,-93.4333,0107,0.63,0.78,1.0000,39.0000
1981-03-11 20:00:00 UTC,2444675.333333,29.4519,-93.4333,0107,0.10,3.00,3.0000,2.0000
1981-03-11 20:30:00 UTC,2444675.354167,29.4519,-93.4333,0107,0.17,5.00,5.0000,2.0000
1981-03-11 21:00:00 UTC,2444675.375000,29.4519,-93.4333,0107,1.25,5.87,6.0000,12.0000
1981-03-11 21:30:00 UTC,2444675.395833,29.4519,-93.4333,0107,1.71,4.70,5.0000,20.0000
1981-03-11 22:00:00 UTC,2444675.416667,29.4519,-93.4333,0107,1.79,4.67,5.0000,21.0000
1981-03-11 22:30:00 UTC,2444675.437500,29.4519,-93.4333,0107,1.08,2.80,3.0000,21.0000
1981-03-11 23:00:00 UTC,2444675.458333,29.4519,-93.4333,0107,-0.12,0.99,1.0000,353.0000
1981-03-11 23:30:00 UTC,2444675.479167,29.4519,-93.4333,0107,-1.95,-0.45,2.0000,257.0000
1981-03-12 00:00:00 UTC,2444675.500000,29.4519,-93.4333,0107,-2.54,-1.59,3.0000,238.0000
1981-03-12 00:30:00 UTC,2444675.520833,29.4519,-93.4333,0107,-1.68,-2.49,3.0000,214.0000
1981-03-12 01:00:00 UTC,2444675.541667,29.4519,-93.4333,0107,-1.63,-3.65,4.0000,204.0000
1981-03-12 01:30:00 UTC,2444675.562500,29.4519,-93.4333,0107,-1.95,-4.60,5.0000,203.0000
1981-03-12 02:00:00 UTC,2444675.583333,29.4519,-93.4333,0107,-1.12,-4.87,5.0000,193.0000
1981-03-12 02:30:00 UTC,2444675.604167,29.4519,-93.4333,0107,-0.31,-5.99,6.0000,183.0000
1981-03-12 03:00:00 UTC,2444675.625000,29.4519,-93.4333,0107,-1.11,-7.92,8.0000,188.0000
1981-03-12 03:30:00 UTC,2444675.645833,29.4519,-93.4333,0107,-3.09,-9.51,10.0000,198.0000
1981-03-12 04:00:00 UTC,2444675.666667,29.4519,-93.4333,0107,-6.00,-10.39,12.0000,210.0000
1981-03-12 04:30:00 UTC,2444675.687500,29.4519,-93.4333,0107,-7.91,-7.64,11.0000,226.0000
1981-03-12 05:00:00 UTC,2444675.708333,29.4519,-93.4333,0107,-8.83,-4.69,10.0000,242.0000